Weather History for Springfield, VT

Change the Weather History Date:

Tuesday, June 11, 2013

  Actual Average Record
Temperature  
Mean Temperature 57 °F 63 °F  
Max Temperature 59 °F 75 °F 96 °F (2008)
Min Temperature 54 °F 51 °F 37 °F (2004)
Degree Days  
Heating Degree Days 9    
Cooling Degree Days 0 2  
Month to date cooling degree days 21 14  
Year to date cooling degree days 45 26  
Since 1 June cooling degree days 21 14  
Growing Degree Days 6 (Base 50)    
Moisture  
Dew Point 55 °F    
Average Humidity 93    
Maximum Humidity 100    
Minimum Humidity 86    
Precipitation  
Precipitation 0.85 in 0.13 in 2.97 in (2001)
Month to date precipitation 3.13 1.66  
Year to date precipitation 14.84 17.93  
Sea Level Pressure  
Sea Level Pressure 29.74 in    
Wind  
Wind Speed 2 mph (NE)    
Max Wind Speed 9 mph    
Max Gust Speed 13 mph    
Visibility 4 miles    
Events Rain    
T = Trace of Precipitation, MM = Missing Value Source: NWS Daily Summary

Daily Weather History Graph

Daily Weather History Graph

Search for Another Location

Airport:

Trip Planner

Search our weather history database for the weather conditions in past years. The results will help you decide how hot, cold, wet, or windy it might be!

Date:

Astronomy

Jun. 11, 2013 Rise Set
Actual Time 5:09 AM EDT 8:30 PM EDT
Civil Twilight 4:33 AM EDT 9:06 PM EDT
Nautical Twilight 3:47 AM EDT 9:52 PM EDT
Astronomical Twilight 2:50 AM EDT 10:49 PM EDT
Moon 7:53 AM EDT (6/11) 10:27 PM EDT (6/11)
Length of Visible Light 16h 32m
Length of Day
15h 21m
Waxing Crescent, 8% of the Moon is Illuminated
Jun 11
Waxing Crescent
Jun 16
First Quarter
Jun 23
Full
Jun 30
Last Quarter
Jul 8
New

Hourly Weather History & Observations

Time (EDT) Temp. Dew Point Humidity Pressure Visibility Wind Dir Wind Speed Gust Speed Precip Events Conditions
12:25 AM 57.2 °F 55.4 °F 94% 29.99 in 5.0 mi ESE 5.8 mph - 0.02 in Rain Light Rain
12:54 AM 57.0 °F 55.0 °F 93% 29.98 in 3.0 mi Calm Calm - 0.06 in Rain Light Rain
1:01 AM 57.2 °F 55.4 °F 94% 29.97 in 4.0 mi Calm Calm - 0.01 in Rain Light Rain
1:17 AM 57.2 °F 55.4 °F 94% 29.96 in 10.0 mi East 3.5 mph - 0.01 in Rain Light Rain
1:54 AM 57.0 °F 55.0 °F 93% 29.94 in 3.0 mi Variable 4.6 mph - 0.05 in Rain Rain
2:17 AM 57.2 °F 55.4 °F 94% 29.93 in 2.0 mi Calm Calm - 0.04 in Rain Rain
2:33 AM 57.2 °F 55.4 °F 94% 29.92 in 4.0 mi Calm Calm - 0.07 in Rain Light Rain
2:54 AM 57.0 °F 55.0 °F 93% 29.91 in 5.0 mi Calm Calm - 0.11 in Rain Rain
3:51 AM 55.4 °F 55.4 °F 100% 29.88 in 4.0 mi Calm Calm - 0.09 in Rain Rain
3:54 AM 55.9 °F 55.9 °F 100% 29.88 in 5.0 mi Calm Calm - 0.09 in Rain Rain
4:22 AM 55.4 °F 55.4 °F 100% 29.87 in 6.0 mi Calm Calm - 0.06 in Rain Light Rain
4:38 AM 55.4 °F 55.4 °F 100% 29.86 in 5.0 mi Calm Calm - 0.06 in Rain Light Rain
4:54 AM 55.9 °F 55.0 °F 97% 29.86 in 4.0 mi Calm Calm - 0.07 in Rain Light Rain
5:08 AM 55.4 °F 55.4 °F 100% 29.86 in 4.0 mi Calm Calm - 0.01 in Rain Light Rain
5:42 AM 55.4 °F 55.4 °F 100% 29.83 in 6.0 mi Calm Calm - 0.04 in Rain Light Rain
5:54 AM 55.9 °F 55.0 °F 97% 29.83 in 7.0 mi Calm Calm - 0.04 in Rain Light Rain
6:26 AM 55.4 °F 53.6 °F 94% 29.82 in 9.0 mi NE 5.8 mph - 0.02 in Rain Light Rain
6:54 AM 55.0 °F 53.1 °F 93% 29.82 in 10.0 mi NNE 4.6 mph - 0.02 in   Overcast
7:54 AM 55.0 °F 52.0 °F 89% 29.81 in 4.0 mi NNE 5.8 mph - 0.01 in Rain Light Rain
8:09 AM 55.4 °F 51.8 °F 88% 29.80 in 2.5 mi Calm Calm - 0.01 in Rain Light Rain
8:34 AM 55.4 °F 53.6 °F 94% 29.80 in 1.8 mi NNE 3.5 mph - 0.02 in Rain Light Rain
8:39 AM 53.6 °F 53.6 °F 100% 29.80 in 2.0 mi Calm Calm - 0.03 in Rain Light Rain
8:43 AM 55.4 °F 53.6 °F 94% 29.80 in 1.8 mi Calm Calm - 0.03 in Rain Light Rain
8:54 AM 55.0 °F 53.1 °F 93% 29.80 in 2.0 mi Calm Calm - 0.04 in Rain Light Rain
9:04 AM 55.4 °F 53.6 °F 94% 29.79 in 4.0 mi Calm Calm - 0.01 in Rain Light Rain
9:20 AM 55.4 °F 53.6 °F 94% 29.79 in 2.5 mi Calm Calm - 0.01 in   Overcast
9:33 AM 55.4 °F 53.6 °F 94% 29.78 in 1.5 mi NNE 3.5 mph - 0.02 in Rain Light Rain
9:46 AM 55.4 °F 53.6 °F 94% 29.77 in 3.0 mi North 3.5 mph - 0.02 in Rain Light Rain
9:54 AM 55.9 °F 54.0 °F 93% 29.77 in 2.5 mi Calm Calm - 0.02 in Rain Light Rain
10:04 AM 55.4 °F 53.6 °F 94% 29.77 in 3.0 mi NNE 3.5 mph - 0.00 in Rain Light Rain
10:50 AM 57.2 °F 53.6 °F 88% 29.75 in 2.5 mi NNE 3.5 mph - 0.01 in Rain Light Rain
10:54 AM 57.0 °F 54.0 °F 89% 29.76 in 3.0 mi Calm Calm - 0.01 in Rain Light Rain
11:45 AM 57.2 °F 55.4 °F 94% 29.74 in 2.5 mi NE 4.6 mph - 0.02 in Rain Light Rain
11:52 AM 57.2 °F 53.6 °F 88% 29.74 in 1.8 mi NE 4.6 mph - 0.03 in Rain Light Rain
11:54 AM 57.0 °F 55.0 °F 93% 29.75 in 2.0 mi ENE 5.8 mph - 0.03 in Rain Light Rain
12:03 PM 57.2 °F 53.6 °F 88% 29.74 in 8.0 mi ENE 6.9 mph - 0.00 in   Overcast
12:54 PM 57.9 °F 55.0 °F 90% 29.73 in 10.0 mi ENE 8.1 mph - 0.00 in   Overcast
1:54 PM 57.9 °F 54.0 °F 87% 29.71 in 10.0 mi ENE 5.8 mph - 0.00 in   Overcast
2:54 PM 57.9 °F 55.0 °F 90% 29.69 in 10.0 mi East 6.9 mph - N/A   Overcast
3:38 PM 59.0 °F 53.6 °F 82% 29.66 in 10.0 mi ENE 4.6 mph - N/A   Overcast
3:47 PM 57.2 °F 53.6 °F 88% 29.66 in 10.0 mi East 3.5 mph - 0.00 in Rain Light Rain
3:54 PM 57.9 °F 55.0 °F 90% 29.67 in 10.0 mi ENE 4.6 mph - 0.00 in Rain Light Rain
4:54 PM 57.9 °F 55.0 °F 90% 29.63 in 6.0 mi NNE 3.5 mph - 0.09 in Rain Light Rain
5:49 PM 57.2 °F 55.4 °F 94% 29.62 in 1.8 mi Calm Calm - 0.09 in Rain Heavy Rain
5:54 PM 57.0 °F 55.0 °F 93% 29.62 in 1.5 mi Calm Calm - 0.12 in Rain Rain
5:58 PM 57.2 °F 55.4 °F 94% 29.62 in 2.0 mi Calm Calm - 0.01 in Rain Rain
6:08 PM 57.2 °F 55.4 °F 94% 29.62 in 5.0 mi Calm Calm - 0.02 in Rain Light Rain
6:21 PM 57.2 °F 55.4 °F 94% 29.62 in 7.0 mi Calm Calm - 0.02 in Rain Light Rain
6:54 PM 57.0 °F 55.9 °F 96% 29.62 in 8.0 mi Calm Calm - 0.03 in Rain Light Rain
7:05 PM 57.2 °F 55.4 °F 94% 29.62 in 9.0 mi Calm Calm - 0.00 in   Overcast
7:41 PM 57.2 °F 55.4 °F 94% 29.61 in 4.0 mi Calm Calm - 0.00 in Rain Light Rain
7:54 PM 55.9 °F 55.0 °F 97% 29.61 in 2.0 mi NE 3.5 mph - 0.00 in Rain Light Rain
8:01 PM 55.4 °F 55.4 °F 100% 29.61 in 1.8 mi Calm Calm - 0.01 in Rain Light Rain
8:08 PM 55.4 °F 55.4 °F 100% 29.61 in 3.0 mi Calm Calm - 0.01 in   Overcast
8:21 PM 55.4 °F 55.4 °F 100% 29.60 in 2.0 mi Calm Calm - 0.01 in Rain Light Rain
8:28 PM 55.4 °F 55.4 °F 100% 29.60 in 1.8 mi Calm Calm - 0.02 in Rain Light Rain
8:42 PM 55.4 °F 55.4 °F 100% 29.61 in 3.0 mi Calm Calm - 0.02 in Rain Light Rain
8:54 PM 55.9 °F 55.0 °F 97% 29.61 in 4.0 mi Calm Calm - 0.03 in Rain Light Rain
9:54 PM 55.9 °F 55.0 °F 97% 29.62 in 4.0 mi Calm Calm - 0.03 in Rain Light Rain
10:50 PM 55.4 °F 55.4 °F 100% 29.61 in 3.0 mi Calm Calm - 0.03 in Rain Light Rain
10:54 PM 55.9 °F 55.0 °F 97% 29.61 in 3.0 mi Calm Calm - 0.03 in Rain Light Rain
11:08 PM 55.4 °F 55.4 °F 100% 29.60 in 3.0 mi Calm Calm - 0.01 in Rain Light Rain
11:23 PM 55.4 °F 55.4 °F 100% 29.60 in 2.5 mi Calm Calm - 0.02 in Rain Light Rain
11:28 PM 55.4 °F 55.4 °F 100% 29.60 in 3.0 mi Calm Calm - 0.02 in Rain Light Rain
11:54 PM 55.9 °F 55.0 °F 97% 29.60 in 5.0 mi Calm Calm - 0.03 in   Overcast